STARLINK-34127, 63810

Orbit data source: Space-Track

STARLINK-34127, 63810 is a payload satellite owned by SpaceX/Seattle (US) in LEO that was launched on Sun, 04 May 2025 UTC via an FALCON 9 launch vehicle from the Air Force Eastern Test Range (AFETR). Payload-class satellites include a variety of spacecraft equipped with specific instruments for various scientific and technological missions. These include communications satellites like Starlink; space stations such as the ISS; scientific satellites like the Hubble; Earth observation satellites from companies like Planet Labs, Umbra, and HawkEye 360; GPS; miniature CubeSats for education and research; and military/defense satellites.

Loading next visibility...
Identifier
63810, 2025-092G
Orbit
LEO
Country
Flag of USUS
Related business
Manufacturer
SpaceX/Seattle
Mission
Operational Commercial Communications
Bus & Motor
STARLINK V2MO, Unknown motor
Mass
575 kg wet, ~530 kg dry
Launch date (UTC)
2025-05-04 (1 year ago)
Launch vehicle
FALCON 9
Launch site
Air Force Eastern Test Range (AFETR)
Object type
Payload
Rocket body
Debris
Shape & HBR
Box + 2 Pan, 17.7 m
Radar Cross Section
36.964 m², Large (>1 m²)

Expand to show TLE details & history
Last TLE update: 21 hours ago

TLE from 21 hours ago
0 STARLINK-34127
1 63810U 25092G   26178.00009774  .00017192  00000-0  63288-3 0  9997
2 63810  42.9994 275.1014 0002149 259.4506 100.6104 15.27575537 65330
Epoch: 2026-06-27T00:00Z
TLE epoch observation values (Epoch: 2026-06-27T00:00:08.444Z)
Latitude
-0°
Longitude
-0.05432°
Altitude
483.11 km
Speed
7.626 km/s
True Right ascension
18h 20m 24s
True Declination
0° 00' 00"
Sunlit
Object was in full shadow at epoch
Visualization orbit readout
Latitude
Unknown
Longitude
Unknown
Altitude
Unknown
Speed
Unknown
Apparent Right ascension
Unknown
Apparent Declination
Unknown
Sunlit
N/A
Visualization observer readout
Local Sidereal Time
08:27:49
Azimuth
Unknown
Elevation
Unknown
Doppler factor
Unknown
Orbital elements
Apogee altitude
486.483 km
Perigee altitude
483.533 km
Semi-major axis
6,863.145 km
Eccentricity
0.00021
Inclination
42.9994°
RAAN
275.1014°
Arg. of periapsis
259.4506°
True anomaly
100.6346°
Mean anomaly
100.6104°
Eccentric anomaly
100.6225°
Mean motion
3.81732 °/min
Orbital period
94.31 mins
BSTAR
0.00063288
Loading maneuver chart data...
Computing Atmospheric mass density...
Loading historical data...
Loading historical data...
Loading historical data...
Loading historical data...
Loading historical data...
Loading historical data...
Loading historical data...

Documentation

Showing up to 5 results
|